STARLINK-35978

Last updated on Wed Dec 31 2025 00:02:06 GMT+0000 (Coordinated Universal Time)

1 66601U 25270P 25364.54528709 .00092217 00000+0 21819-2 0 9998 2 66601 42.9951 89.9148 0000897 23.8053 336.2845 15.40787644 6930
UTC large
Height (km)
Speed (km/s)
/
Latitude / Longitude
Inclination (degrees)
Orbital Period (minutes)
Azimuth
Elevation
Range (km)
Doppler Factor

Next 0 passes for location: London (51.5072 / 0.1276)

Sorry there are no passes over London.